Flag for Colombia Weather past 2 weeks in Cali, Colombia

Now
66 °F

Fog.


Feels Like: 66 °F
Forecast: 67 / 82 °F
Wind: No wind

Location: Cali / Alfonso Bonillaaragon

Current Time: Oct 23, 2014 at 3:18:01 AM

Latest Report: Oct 23, 2014 at 3:00 AM


Visibility: 1 mi

Pressure: 30.02 "Hg

Humidity: 94%

Dew point: 64 °F

Location of CaliLocation

Historic Weather in Cali — Graph

°F

Cali temperature yesterday

Maximum temperature yesterday: 82 °F (at 1:00 PM)
Minimum temperature yesterday: 66 °F (at 6:00 PM)
Average temperature yesterday: 73 °F

Past Weeks' High & Low Weather Summary

 TemperatureHumidityPressure
High91 °F (Oct 16, 2:00 PM)100% (Oct 21, 5:00 AM)30.11 "Hg (Oct 21, 5:00 AM)
Low64 °F (Oct 12, 5:00 AM)33% (Oct 16, 1:00 PM)29.81 "Hg (Oct 18, 3:00 PM)
Average74 °F75%29.98 "Hg
* Reported Oct 8 2:00 AM — Oct 23 2:00 AM, Cali, Weather by CustomWeather, © 2014

Note: Actual official high and low records may vary slightly from our data, if they occured in-between our weather recording intervals... More about our weather records

Advertising

Cali weather history for previous 24 hours

 ConditionsComfort  
Time TempWeatherWind HumidityBarometerVisibility
2:00 AM
Oct 23
66 °FFog.No wind94%30.02 "Hg1 mi
1:00 AM66 °FDrizzle. Mostly cloudy.No wind94%30.04 "Hg2 mi
12:00 AM66 °FDrizzle. Overcast.No wind94%30.07 "Hg4 mi
11:00 PM
Oct 22
66 °FDrizzle. Mostly cloudy.No wind94%30.10 "Hg4 mi
10:00 PM66 °FDrizzle. Mostly cloudy.2 mph94%30.11 "Hg4 mi
9:00 PM68 °FDrizzle. Mostly cloudy.5 mph88%30.09 "Hg5 mi
8:00 PM68 °FOvercast.5 mph88%30.05 "HgN/A
7:00 PM68 °FScattered showers. Mostly cloudy.5 mph88%30.02 "HgN/A
6:00 PM66 °FPassing clouds.14 mph94%29.99 "Hg6 mi
5:00 PM68 °FRain. Broken clouds.12 mph94%29.98 "Hg2 mi
4:00 PM72 °FScattered showers. Broken clouds.13 mph88%29.94 "Hg4 mi
3:00 PM72 °FThunderstorms. Broken clouds.6 mph88%29.94 "Hg2 mi
2:00 PM81 °FDrizzle. Broken clouds.8 mph66%29.92 "Hg5 mi
1:00 PM82 °FDrizzle. Broken clouds.9 mph62%29.95 "Hg6 mi
12:00 PM81 °FBroken clouds.12 mph62%29.98 "HgN/A
11:00 AM81 °FBroken clouds.5 mph62%30.01 "HgN/A
10:00 AM81 °FBroken clouds.3 mph58%30.04 "HgN/A
9:00 AM79 °FBroken clouds.5 mph65%30.04 "Hg6 mi
8:00 AM73 °FScattered clouds.No wind78%30.03 "Hg6 mi
7:00 AM72 °FScattered clouds.No wind83%30.01 "HgN/A
6:00 AM70 °FScattered clouds.No wind88%29.99 "HgN/A
5:00 AM72 °FPassing clouds.No wind83%29.96 "HgN/A
4:00 AM72 °FPassing clouds.No wind83%29.94 "HgN/A
3:00 AM72 °FPassing clouds.No wind83%29.93 "HgN/A
Weather by CustomWeather, © 2014

See weather overviewHow to use our weather pages